Flag for India Weather past 2 weeks in Karaikudi, Tamil Nadu, India

Now
84 °F

Drizzle. Broken clouds.


Feels Like: 94 °F
Forecast: 77 / 96 °F
Wind: 9 mph from North

Location: Tiruchchirapalli

Current Time: Apr 27, 2015 at 3:26:15 PM

Latest Report: Apr 27, 2015 at 2:40 PM


Visibility: 4 mi

Pressure: 29.83 "Hg

Humidity: 79%

Dew point: 77 °F

Location of KaraikudiLocation

Historic Weather in Karaikudi — Graph

°F

Karaikudi temperature yesterday

Maximum temperature yesterday: 95 °F (at 1:10 PM)
Minimum temperature yesterday: 79 °F (at 3:10 AM)
Average temperature yesterday: 84 °F

Past Weeks' High & Low Weather Summary

 TemperatureHumidityPressure
High102 °F (Apr 12, 2:40 PM)100% (Apr 13, 2:40 AM)29.98 "Hg (Apr 13, 2:40 AM)
Low70 °F (Apr 18, 2:40 AM)31% (Apr 12, 2:40 PM)29.68 "Hg (Apr 18, 3:10 PM)
Average85 °F70%29.83 "Hg
* Reported Apr 12 1:40 PM — Apr 27 1:40 PM, Karaikudi, Weather by CustomWeather, © 2015

Note: Actual official high and low records may vary slightly from our data, if they occured in-between our weather recording intervals... More about our weather records

Advertising

Karaikudi weather history for previous 24 hours

 ConditionsComfort  
Time TempWeatherWind HumidityBarometerVisibility
1:40 PM
Mon, Apr 27
84 °FDrizzle. Broken clouds.12 mph79%29.86 "Hg4 mi
1:10 PM90 °FScattered clouds.13 mph67%29.86 "Hg4 mi
12:10 PM93 °FScattered clouds.5 mph56%29.86 "Hg5 mi
11:40 AM93 °FScattered clouds.5 mph56%29.89 "Hg5 mi
11:10 AM93 °FScattered clouds.5 mph59%29.89 "Hg5 mi
10:40 AM91 °FScattered clouds.5 mph63%29.89 "Hg5 mi
10:10 AM91 °FScattered clouds.3 mph63%29.89 "Hg5 mi
9:40 AM90 °FScattered clouds.5 mph67%29.92 "Hg5 mi
8:40 AM86 °FScattered clouds.2 mph75%29.89 "Hg2 mi
8:10 AM84 °FScattered clouds.3 mph74%29.89 "Hg2 mi
7:40 AM82 °FFog.3 mph79%29.89 "Hg2 mi
7:10 AM81 °FFog.3 mph84%29.86 "Hg2 mi
6:10 AM79 °FFog.No wind89%29.83 "Hg2 mi
5:40 AM79 °FFog.3 mph89%29.83 "Hg3 mi
5:10 AM79 °FFog.5 mph89%29.83 "Hg3 mi
4:40 AM79 °FFog.3 mph89%29.80 "Hg3 mi
4:10 AM79 °FFog.No wind89%29.80 "Hg3 mi
3:40 AM79 °FFog.No wind89%29.80 "Hg3 mi
2:40 AM79 °FPassing clouds.No wind89%29.80 "Hg4 mi
2:10 AM79 °FPassing clouds.No wind89%29.80 "Hg4 mi
1:40 AM79 °FPassing clouds.No wind89%29.80 "Hg4 mi
1:10 AM81 °FPassing clouds.2 mph84%29.83 "Hg4 mi
12:40 AM81 °FPassing clouds.No wind84%29.83 "Hg4 mi
12:10 AM81 °FPassing clouds.No wind84%29.83 "Hg4 mi
11:40 PM
Sun, Apr 26
81 °FPassing clouds.No wind84%29.83 "Hg4 mi
11:10 PM81 °FPassing clouds.No wind84%29.83 "Hg4 mi
10:40 PM81 °FPassing clouds.No wind84%29.83 "Hg4 mi
10:10 PM81 °FPassing clouds.No wind84%29.83 "Hg4 mi
9:40 PM81 °FPassing clouds.No wind84%29.83 "Hg4 mi
9:10 PM81 °FPassing clouds.No wind84%29.83 "Hg4 mi
8:40 PM81 °FPassing clouds.2 mph84%29.80 "Hg4 mi
8:10 PM81 °FPassing clouds.No wind79%29.80 "Hg4 mi
7:40 PM81 °FPassing clouds.5 mph79%29.80 "Hg4 mi
7:10 PM82 °FPassing clouds.5 mph74%29.80 "Hg4 mi
6:40 PM82 °FScattered clouds.5 mph74%29.80 "Hg4 mi
6:10 PM82 °FBroken clouds.5 mph74%29.77 "Hg4 mi
5:40 PM82 °FBroken clouds.6 mph74%29.77 "Hg4 mi
5:10 PM82 °FBroken clouds.6 mph74%29.74 "Hg5 mi
4:40 PM82 °FBroken clouds.5 mph74%29.74 "Hg5 mi
3:40 PM79 °FThunderstorms. Broken clouds.7 mph79%29.77 "Hg2 mi
3:10 PM88 °FThunderstorms. Broken clouds.17 mph66%29.77 "Hg2 mi
Weather by CustomWeather, © 2015

See weather overviewHow to use our weather pages